sat.trackr.live / text

‹ back to catalog

STARLINK-36733

NORAD 67811 · 2026-032Q

PAYLOAD ACTIVE UNKNOWN

§ Identity

Operator
Country
US
Launch date
2026-02-15
Launch site
AFWTR
Launch vehicle
Mass (kg)
RCS (m²)

Purposes: comms

External: N2YO · Heavens-Above · Gunter

§ Orbital elements

Epoch: 2026-09-19T22:44:59.481024Z

Period
93.90 min
Inclination
97.2853°
Eccentricity
0.0001938
Mean motion
15.33482927 rev/d
Perigee alt
464.1 km
Apogee alt
466.8 km
Semi-major
6,843.6 km
B*
1.1796e-3
RAAN
89.4099°
Arg perigee
82.0107°
Mean anomaly
278.1356°
Rev number
3,473

§ Raw data

STARLINK-367331 67811U 26032Q   26262.94791066  .00038245  00000+0  11796-2 0  99932 67811  97.2853  89.4099 0001938  82.0107 278.1356 15.33482927 34730

JSON: /api/v1/satellites/67811 · /tle

For live sub-satellite position, see the globe view (requires WebGL).

§ Visibility from observer

Set your observer location to see the next 7 days of passes ≥ 10°. The values pass through the URL so the page stays shareable.

No JS? Fill the form by hand. The geolocation button needs JavaScript.